Zurück zum Katalog

NAJM-1

AktivWissenschaftSSO
NORAD 47947·PAYLOAD·🇸🇦 Saudi Arabia
Dieser Satellitenname wurde noch nicht durch offizielle Quellen bestätigt.

Gestartet Mar 22, 2021 von Baikonur Cosmodrome

Loading…

Nächste Überflüge (nächste 24 Stunden)

TLE

AktuellSource: Space-Track

Epoche: Sep 14, 2026, 14:39 UTC

1 47947U 21022R   26257.61044453 -.00000561  00000-0 -31526-4 0  9992
2 47947  97.3421 129.4497 0016187 221.2186 138.7823 15.09049274301490

Verfolge NAJM-1 in Echtzeit mit AllMySat

Download on the App Store